"2016-05-15 00:00:00",1634331,5.287,98.5,6.345,1.233,10.56,102.1922,4.894,5.986,78.29,0,110,13.25,5.66,60.5
"2016-05-15 00:00:30",1634332,6.189,101.8,7.352,1.444,10.94,102.195,4.901,5.961,78.33,0,110,13.25,5.67,63.8
"2016-05-15 00:01:00",1634333,6.542,99.1,6.934,1.328,11.22,102.2215,4.969,6.03,78.41,0,110,13.25,5.74,61.1
"2016-05-15 00:01:30",1634334,6.941,101.5,7.277,1.352,11.82,102.2277,4.985,6.071,78.39,0,110,13.25,5.75,63.5
"2016-05-15 00:02:00",1634335,7.138,101.3,7.044,1.307,11.45,102.2478,5.036,6.099,78.29,0,110,13.25,5.81,63.3
"2016-05-15 00:02:30",1634336,7.91,104,7.445,1.332,12.04,102.2611,5.07,6.141,78.18,0,110,13.25,5.84,66.0
"2016-05-15 00:03:00",1634337,7.01,103.9,7.514,1.375,11.6,102.282,5.123,6.111,78.06,0,110,13.25,5.89,65.9
"2016-05-15 00:03:30",1634338,6.768,103.1,7.655,1.413,11.18,102.2901,5.144,6.117,77.99,0,110,13.24,5.91,65.1
"2016-05-15 00:04:00",1634339,7.292,99.9,7.168,1.413,12.06,102.3099,5.195,6.254,77.98,0,110,13.24,5.96,61.9
"2016-05-15 00:04:30",1634340,6.647,93.3,8.35,1.46,11.44,102.3212,5.223,6.196,77.69,0,110,13.24,5.99,55.3
"2016-05-15 00:05:00",1634341,6.561,86.3,7.444,1.369,10.97,102.3248,5.233,6.303,77.51,0,110,13.24,6.00,48.3
"2016-05-15 00:05:30",1634342,5.934,73.8,5.559,1.277,9.71,102.3358,5.261,6.293,77.16,0,110,13.24,6.03,35.8
"2016-05-15 00:06:00",1634343,5.595,71.07,6.185,1.468,9.66,102.3448,5.284,6.252,76.86,0,110,13.25,6.05,33.1
"2016-05-15 00:06:30",1634344,5.373,69.56,7.917,1.455,10.92,102.3534,5.306,6.293,76.64,0,110,13.24,6.08,31.6
"2016-05-15 00:07:00",1634345,5.383,61.21,7.729,1.378,10.06,102.3516,5.301,6.283,76.43,0,110,13.25,6.07,23.2
"2016-05-15 00:07:30",1634346,5.564,52.89,6.223,1.363,9.54,102.3534,5.306,6.356,76.37,0,110,13.25,6.08,14.9
"2016-05-15 00:08:00",1634347,6.292,52.62,7.71,1.395,10.53,102.3513,5.3,6.403,76.53,0,110,13.25,6.07,14.6
"2016-05-15 00:08:30",1634348,5.851,49.09,7.028,1.36,10.53,102.3508,5.299,6.441,76.62,0,110,13.25,6.07,11.1
"2016-05-15 00:09:00",1634349,5.293,46.79,6.929,1.294,10.18,102.3511,5.3,6.4,76.67,0,110,13.25,6.07,8.8
"2016-05-15 00:09:30",1634350,3.885,40.12,8.02,1.355,9.38,102.3502,5.298,6.434,76.77,0,110,13.25,6.07,2.1
"2016-05-15 00:10:00",1634351,5.281,45.46,6.7,1.194,9.91,102.3409,5.274,6.328,76.82,0,110,13.25,6.04,7.5
"2016-05-15 00:10:30",1634352,4.397,40.04,6.129,1.373,9.81,102.3327,5.253,6.441,77.08,0,110,13.25,6.02,2.0
"2016-05-15 00:11:00",1634353,4.456,37.59,5.46,1.378,9.45,102.327,5.238,6.363,77.14,0,110,13.25,6.01,359.6
"2016-05-15 00:11:30",1634354,5.555,42.99,7.647,1.337,10.42,102.3168,5.212,6.403,77.37,0,110,13.25,5.98,5.0
"2016-05-15 00:12:00",1634355,4.897,35.27,7.232,1.409,10.13,102.3148,5.207,6.372,77.54,0,110,13.25,5.98,357.3
"2016-05-15 00:12:30",1634356,4.982,33.91,7.879,1.484,9.95,102.3157,5.209,6.425,77.79,0,110,13.25,5.98,355.9
"2016-05-15 00:13:00",1634357,5.69,36.93,6.036,1.412,9.72,102.3075,5.188,6.279,77.72,0,110,13.25,5.96,358.9
"2016-05-15 00:13:30",1634358,5.12,30.17,6.424,1.169,9.48,102.297,5.162,6.337,77.88,0,110,13.25,5.93,352.2
"2016-05-15 00:14:00",1634359,5.743,35.81,8.3,1.584,10.63,102.2931,5.152,6.341,78.01,0,110,13.25,5.92,357.8
"2016-05-15 00:14:30",1634360,4.743,38.34,8.96,1.503,10.42,102.2803,5.119,6.395,78.2,0,110,13.25,5.89,0.3
"2016-05-15 00:15:00",1634361,4.761,39.49,6.92,1.203,10.19,102.2792,5.116,6.381,78.31,0,110,13.25,5.89,1.5
"2016-05-15 00:15:30",1634362,4.59,37.15,7.26,1.444,9.98,102.2777,5.112,6.3,78.34,0,110,13.25,5.88,359.1
"2016-05-15 00:16:00",1634363,4.668,35.33,9.05,1.165,8.67,102.2786,5.115,6.255,78.42,0,110,13.25,5.88,357.3
"2016-05-15 00:16:30",1634364,5.402,40.2,6.503,1.313,10,102.2783,5.114,6.295,78.4,0,110,13.25,5.88,2.2
"2016-05-15 00:17:00",1634365,4.975,32.03,7.414,1.388,10.63,102.2774,5.112,6.423,78.57,0,110,13.25,5.88,354.0
"2016-05-15 00:17:30",1634366,4.495,37.32,8.79,1.33,10.41,102.2774,5.112,6.323,78.57,0,110,13.25,5.88,359.3
"2016-05-15 00:18:00",1634367,5.505,43.87,6.739,1.306,10.06,102.2769,5.11,6.277,78.65,0,110,13.25,5.88,5.9
"2016-05-15 00:18:30",1634368,4.85,38.92,6.422,1.199,9.05,102.2751,5.106,6.293,78.66,0,110,13.25,5.88,0.9
"2016-05-15 00:19:00",1634369,4.793,39.37,4.56,1.094,7.912,102.2746,5.104,6.186,78.42,0,110,13.25,5.87,1.4
"2016-05-15 00:19:30",1634370,5.035,43.68,8.91,1.495,10.09,102.2711,5.096,6.321,78.48,0,110,13.25,5.87,5.7
"2016-05-15 00:20:00",1634371,5.736,39.71,10.82,1.612,9.96,102.2731,5.101,6.329,78.69,0,110,13.25,5.87,1.7
"2016-05-15 00:20:30",1634372,6.01,33.15,9.67,1.297,10.46,102.272,5.098,6.315,78.97,0,110,13.25,5.87,355.1
"2016-05-15 00:21:00",1634373,5.36,27.12,7.575,1.681,10.02,102.272,5.098,6.226,79.2,0,110,13.25,5.87,349.1
"2016-05-15 00:21:30",1634374,5.333,33.01,5.667,1.45,9.12,102.272,5.098,6.289,79.44,0,110,13.25,5.87,355.0
"2016-05-15 00:22:00",1634375,4.917,33.8,7.917,0.998,9.06,102.272,5.098,6.245,79.34,0,110,13.25,5.87,355.8
"2016-05-15 00:22:30",1634376,5.588,38.62,6.756,1.644,10.24,102.272,5.098,6.335,79.28,0,110,13.25,5.87,0.6
"2016-05-15 00:23:00",1634377,5.902,34.33,10.47,1.445,9.94,102.2731,5.101,6.297,79.07,0,110,13.25,5.87,356.3
"2016-05-15 00:23:30",1634378,4.722,25.6,8.42,1.937,9.91,102.2759,5.108,6.344,79,0,110.1,13.25,5.88,347.6
"2016-05-15 00:24:00",1634379,5.327,31.74,8.92,1.6,10.55,102.2835,5.127,6.327,79,0,110,13.25,5.90,353.7
"2016-05-15 00:24:30",1634380,3.475,20.84,8.32,1.858,8.95,102.2864,5.134,6.249,78.93,0,110,13.25,5.90,342.8
"2016-05-15 00:25:00",1634381,3.196,24.05,9.23,1.362,8.64,102.2889,5.141,6.25,78.96,0,110,13.25,5.91,346.0
"2016-05-15 00:25:30",1634382,5.183,28.73,7.377,1.222,10.11,102.2903,5.145,6.32,79.04,0,110.1,13.25,5.91,350.7
"2016-05-15 00:26:00",1634383,4.18,26.08,7.516,1.513,10.27,102.2917,5.148,6.338,78.91,0,110.1,13.25,5.92,348.1
"2016-05-15 00:26:30",1634384,3.461,24.06,6.715,0.969,9.21,102.3005,5.171,6.25,78.73,0,110,13.25,5.94,346.1
"2016-05-15 00:27:00",1634385,4.554,28.37,6.89,1.421,9.9,102.305,5.182,6.347,78.84,0,110.1,13.25,5.95,350.4
"2016-05-15 00:27:30",1634386,4.621,25.66,6.379,1.292,9.21,102.3059,5.184,6.276,78.76,0,110.1,13.25,5.95,347.7
"2016-05-15 00:28:00",1634387,3.683,22.37,2.75,0.639,7.852,102.3059,5.184,6.226,78.6,0,110.1,13.29,5.95,344.4
"2016-05-15 00:28:30",1634388,3.771,20.91,10.7,1.716,10.65,102.3059,5.184,6.336,78.6,0,110.1,13.25,5.95,342.9
"2016-05-15 00:29:00",1634389,5.418,27.68,9.43,1.854,10.9,102.3059,5.184,6.417,78.64,0,110.1,13.25,5.95,349.7
"2016-05-15 00:29:30",1634390,4.392,24.22,8.27,1.382,10.1,102.3059,5.184,6.275,78.45,0,110,13.25,5.95,346.2
"2016-05-15 00:30:00",1634391,4.439,23.96,7.924,1.587,9.43,102.3059,5.184,6.381,78.47,0,110.1,13.25,5.95,346.0
"2016-05-15 00:30:30",1634392,5.114,27.94,5.778,1.319,8.57,102.3059,5.184,6.258,78.29,0,110.1,13.25,5.95,349.9
"2016-05-15 00:31:00",1634393,4.912,28.17,6.035,1.267,8.36,102.305,5.182,6.21,78.15,0,110.1,13.25,5.95,350.2
"2016-05-15 00:31:30",1634394,5.84,33.06,7.498,1.46,10.45,102.3022,5.175,6.428,78.22,0,110.1,13.25,5.95,355.1
"2016-05-15 00:32:00",1634395,5.892,33.6,7.077,1.415,11.07,102.2943,5.155,6.417,78.07,0,110.1,13.25,5.92,355.6
"2016-05-15 00:32:30",1634396,4.687,34.86,7.87,1.441,10.25,102.2895,5.142,6.369,77.86,0,110.1,13.25,5.91,356.9
"2016-05-15 00:33:00",1634397,4.596,35.88,6.867,1.544,10.38,102.2816,5.122,6.304,77.61,0,110.1,13.25,5.89,357.9
"2016-05-15 00:33:30",1634398,3.497,31.67,3.621,0.528,7.511,102.2722,5.098,6.202,77.33,0,110.1,13.29,5.87,353.7
"2016-05-15 00:34:00",1634399,4.806,37.79,6.809,1.591,8.82,102.272,5.098,6.194,77.19,0,110.1,13.25,5.87,359.8
"2016-05-15 00:34:30",1634400,4.624,41.05,8.17,1.292,10.32,102.2717,5.097,6.353,77.39,0,110.1,13.25,5.87,3.0
"2016-05-15 00:35:00",1634401,5.964,47.75,7.193,1.539,10.98,102.2607,5.069,6.385,77.55,0,110.1,13.25,5.84,9.8
"2016-05-15 00:35:30",1634402,6.851,49.96,7.333,1.301,11.31,102.2411,5.019,6.32,77.61,0,110.1,13.25,5.79,12.0
"2016-05-15 00:36:00",1634403,5.63,49.97,7.838,1.272,9.15,102.2375,5.01,6.253,77.66,0,110.1,13.24,5.78,12.0
"2016-05-15 00:36:30",1634404,6.138,52.86,6.951,1.311,9.12,102.22,4.965,6.151,77.68,0,110.1,13.24,5.73,14.9
"2016-05-15 00:37:00",1634405,5.971,61.05,8.53,1.314,9.48,102.2041,4.924,6.216,77.88,0,110.1,13.24,5.69,23.0
"2016-05-15 00:37:30",1634406,6.24,68.95,7.075,1.388,11.08,102.2005,4.915,6.285,78.13,0,110.1,13.24,5.68,30.9
"2016-05-15 00:38:00",1634407,6.082,67.61,6.629,1.377,10.23,102.1767,4.854,6.178,78.23,0,110,13.24,5.62,29.6
"2016-05-15 00:38:30",1634408,5.553,60.5,8.22,1.236,8.84,102.1702,4.838,6.118,78.38,0,110,13.24,5.61,22.5
"2016-05-15 00:39:00",1634409,6.274,59.58,7.897,1.556,10.14,102.1699,4.837,6.144,78.56,0,110,13.24,5.61,21.6
"2016-05-15 00:39:30",1634410,5.08,49.33,5.438,0.895,8.18,102.1555,4.8,6.029,78.65,0,110,13.24,5.57,11.3
"2016-05-15 00:40:00",1634411,5.515,46.22,8.12,1.377,10.18,102.1369,4.753,6.059,78.83,0,110,13.24,5.52,8.2
"2016-05-15 00:40:30",1634412,4.805,43.07,8.01,1.399,10.57,102.134,4.745,6.116,79,0,110,13.24,5.51,5.1
"2016-05-15 00:41:00",1634413,3.547,33.48,6.299,1.198,9.07,102.1177,4.704,5.985,78.99,0,110,13.25,5.47,355.5
"2016-05-15 00:41:30",1634414,3.827,33.48,6.786,1.373,9.53,102.1089,4.681,6.029,79.15,0,110,13.25,5.45,355.5
"2016-05-15 00:42:00",1634415,4.859,30.86,7.663,1.279,9.63,102.1024,4.665,5.92,79.14,0,110,13.25,5.43,352.9
"2016-05-15 00:42:30",1634416,3.05,19.51,3.193,0.516,7.377,102.1016,4.663,5.774,79.12,0,110,13.3,5.43,341.5
"2016-05-15 00:43:00",1634417,5.282,27.49,8.46,1.415,10.18,102.0897,4.632,5.953,79.39,0,110,13.25,5.40,349.5
"2016-05-15 00:43:30",1634418,5.108,30.35,6.928,1.363,10.73,102.0843,4.618,5.985,79.56,0,110,13.25,5.39,352.4
"2016-05-15 00:44:00",1634419,5.18,37.73,7.636,1.355,11.56,102.0804,4.608,5.947,79.62,0,110,13.25,5.38,359.7
"2016-05-15 00:44:30",1634420,4.362,32.65,6.405,1.237,9.08,102.0688,4.579,5.854,79.63,0,110,13.25,5.35,354.6
"2016-05-15 00:45:00",1634421,4.287,30.97,5.791,1.49,9.08,102.0688,4.579,5.834,79.7,0,110,13.25,5.35,353.0
"2016-05-15 00:45:30",1634422,3.683,30.28,1.831,0.363,7.351,102.0694,4.58,5.682,79.66,0,110,13.3,5.35,352.3
"2016-05-15 00:46:00",1634423,5.124,40.69,8.88,1.627,10.29,102.0702,4.583,5.878,80,0,110,13.25,5.35,2.7
"2016-05-15 00:46:30",1634424,5.405,44.01,7.733,1.497,10.98,102.0663,4.572,5.905,80.2,0,110,13.25,5.34,6.0
"2016-05-15 00:47:00",1634425,5.478,45.77,6.963,1.332,11.05,102.0587,4.553,5.887,80.2,0,110,13.25,5.32,7.8
"2016-05-15 00:47:30",1634426,5.433,48.39,7.658,1.383,10.17,102.0561,4.547,5.768,80.2,0,110,13.25,5.31,10.4
"2016-05-15 00:48:00",1634427,5.211,47.52,5.813,1.232,9.15,102.0496,4.53,5.719,79.97,0,110,13.25,5.30,9.5
"2016-05-15 00:48:30",1634428,4.252,42.26,1.032,0.105,7.917,102.0485,4.527,5.611,79.45,0,110,13.3,5.29,4.3
"2016-05-15 00:49:00",1634429,5.174,45.8,6.783,1.331,10.22,102.0409,4.508,5.824,79.12,0,110,13.25,5.28,7.8
"2016-05-15 00:49:30",1634430,6.136,49.37,6.937,1.371,11.87,102.0409,4.508,5.809,78.63,0,110,13.26,5.28,11.4
"2016-05-15 00:50:00",1634431,5.575,46.3,7.446,1.431,10.63,102.0463,4.521,5.816,78.26,0,110,13.25,5.29,8.3
"2016-05-15 00:50:30",1634432,5.131,42.98,7.301,1.465,10.61,102.0494,4.529,5.695,77.79,0,110,13.25,5.30,5.0
"2016-05-15 00:51:00",1634433,3.996,37.65,7.083,1.215,9.47,102.0536,4.54,5.653,77.45,0,110,13.25,5.31,359.6
"2016-05-15 00:51:30",1634434,3.182,32.67,1.62,0.298,7.802,102.0539,4.541,5.555,77.15,0,110,13.3,5.31,354.7
"2016-05-15 00:52:00",1634435,4.665,35.1,6.718,1.58,10.23,102.0525,4.537,5.744,77.16,0,110,13.25,5.31,357.1
"2016-05-15 00:52:30",1634436,5.611,35.04,7.327,1.435,11.2,102.0576,4.55,5.791,77.18,0,110,13.25,5.32,357.0
"2016-05-15 00:53:00",1634437,5.675,36.97,6.952,1.519,11.3,102.057,4.549,5.789,77.17,0,110,13.25,5.32,359.0
"2016-05-15 00:53:30",1634438,5.51,35.53,7.841,1.454,10.67,102.0632,4.565,5.705,76.98,0,110,13.25,5.33,357.5
"2016-05-15 00:54:00",1634439,4.645,31.53,6.004,1.351,9.27,102.0681,4.577,5.695,76.91,0,110,13.25,5.35,353.5
"2016-05-15 00:54:30",1634440,3.686,27.69,1.363,0.185,7.806,102.0738,4.592,5.576,76.75,0,110,13.29,5.36,349.7
"2016-05-15 00:55:00",1634441,4.42,33.56,7.152,1.217,9.66,102.0783,4.603,5.76,76.87,0,110,13.25,5.37,355.6
"2016-05-15 00:55:30",1634442,5.308,35.59,7.41,1.25,11.24,102.0795,4.606,5.804,76.86,0,110,13.25,5.37,357.6
"2016-05-15 00:56:00",1634443,4.859,37.55,7.576,1.398,11.13,102.0823,4.613,5.826,76.87,0,110,13.25,5.38,359.5
"2016-05-15 00:56:30",1634444,4.421,34.54,7.03,1.421,10.02,102.0815,4.611,5.801,76.82,0,110,13.25,5.38,356.5
"2016-05-15 00:57:00",1634445,4.483,33.62,6.315,1.188,9.47,102.0832,4.616,5.688,76.69,0,110,13.25,5.38,355.6
"2016-05-15 00:57:30",1634446,3.751,32.35,3.495,0.772,8.14,102.0835,4.616,5.615,76.61,0,110,13.25,5.38,354.4
"2016-05-15 00:58:00",1634447,4.767,37.82,7.36,1.397,10.35,102.0844,4.619,5.752,76.74,0,110,13.25,5.39,359.8
"2016-05-15 00:58:30",1634448,6.039,34.39,7.636,1.331,11.33,102.0852,4.621,5.843,76.83,0,110,13.25,5.39,356.4
"2016-05-15 00:59:00",1634449,6.704,36.28,6.14,1.235,11.65,102.0855,4.622,5.847,76.85,0,110,13.26,5.39,358.3
"2016-05-15 00:59:30",1634450,6.148,32.35,8.09,1.33,10.76,102.0849,4.62,5.791,76.8,0,110,13.25,5.39,354.4
"2016-05-15 01:00:00",1634451,5.553,28,7.205,1.439,9.63,102.0855,4.622,5.723,76.73,0,110,13.25,5.39,350.0
"2016-05-15 01:00:30",1634452,5.541,31.65,7.779,1.261,9.75,102.0884,4.629,5.75,76.78,0,110,13.25,5.40,353.6
"2016-05-15 01:01:00",1634453,6.021,32.32,7.776,1.475,10.38,102.0884,4.629,5.8,76.86,0,110,13.26,5.40,354.3
"2016-05-15 01:01:30",1634454,5.807,33.31,7.097,1.465,10.54,102.0901,4.633,5.791,76.89,0,110,13.26,5.40,355.3
"2016-05-15 01:02:00",1634455,6.218,33.62,7.392,1.326,11.1,102.0875,4.627,5.831,76.95,0,110,13.26,5.39,355.6
"2016-05-15 01:02:30",1634456,4.902,30.47,7.559,1.284,9.56,102.0901,4.633,5.798,76.95,0,110,13.26,5.40,352.5
"2016-05-15 01:03:00",1634457,5.485,30.23,7.677,1.521,10.4,102.0913,4.636,5.764,76.95,0,110,13.25,5.40,352.2
"2016-05-15 01:03:30",1634458,5.301,29.84,6.708,1.395,9.83,102.093,4.641,5.816,77.05,0,110,13.26,5.41,351.8
"2016-05-15 01:04:00",1634459,4.943,27.97,7.069,1.427,9.72,102.0921,4.638,5.768,77.03,0,110,13.26,5.41,350.0
"2016-05-15 01:04:30",1634460,5.237,31.86,8.5,1.298,9.94,102.0919,4.638,5.755,77.03,0,110,13.26,5.41,353.9
"2016-05-15 01:05:00",1634461,5.173,30.82,6.712,1.397,10.05,102.0927,4.64,5.874,77.12,0,110,13.25,5.41,352.8
"2016-05-15 01:05:30",1634462,5.866,31.66,7.052,1.384,10.59,102.0939,4.643,5.763,77.02,0,110,13.26,5.41,353.7
"2016-05-15 01:06:00",1634463,5.341,28.95,7.338,1.449,10.21,102.0953,4.647,5.787,77.05,0,110,13.26,5.41,351.0
"2016-05-15 01:06:30",1634464,4.848,26.87,7.202,1.286,9.69,102.0945,4.644,5.826,77.12,0,110,13.26,5.41,348.9
"2016-05-15 01:07:00",1634465,4.017,23.81,8.68,1.762,9.13,102.095,4.646,5.761,77.13,0,110,13.26,5.41,345.8
"2016-05-15 01:07:30",1634466,4.979,28.59,7.644,1.41,10.15,102.0956,4.647,5.824,77.44,0,110,13.26,5.42,350.6
"2016-05-15 01:08:00",1634467,5.232,29,7.508,1.519,10,102.0947,4.645,5.852,77.75,0,110,13.26,5.41,351.0
"2016-05-15 01:08:30",1634468,5.112,27.88,7.281,1.406,10.5,102.0956,4.647,5.862,78.03,0,110,13.26,5.42,349.9
"2016-05-15 01:09:00",1634469,4.642,26.99,6.963,1.214,10.13,102.0962,4.649,5.877,78.31,0,110,13.25,5.42,349.0
"2016-05-15 01:09:30",1634470,4.228,25.34,7.299,1.295,9.25,102.0959,4.648,5.763,78.4,0,110,13.25,5.42,347.3
"2016-05-15 01:10:00",1634471,4.202,23.06,7.722,1.263,9.52,102.0962,4.649,5.776,78.47,0,110,13.25,5.42,345.1
"2016-05-15 01:10:30",1634472,4.431,26.09,6.431,1.422,9.63,102.0965,4.65,5.874,78.69,0,110,13.25,5.42,348.1
"2016-05-15 01:11:00",1634473,5.076,28.93,7.716,1.414,9.95,102.0959,4.648,5.876,78.78,0,110,13.25,5.42,350.9
"2016-05-15 01:11:30",1634474,5.412,30.12,7.449,1.372,9.76,102.0973,4.652,5.764,78.75,0,110,13.25,5.42,352.1
"2016-05-15 01:12:00",1634475,5.57,30.45,6.946,1.354,10.05,102.0976,4.652,5.876,78.78,0,110,13.25,5.42,352.5
"2016-05-15 01:12:30",1634476,4.747,29.05,5.504,1.164,8.91,102.0988,4.655,5.814,78.72,0,110,13.25,5.42,351.0
"2016-05-15 01:13:00",1634477,5.688,31.67,6.581,1.507,10.46,102.0943,4.644,5.799,78.64,0,110,13.25,5.41,353.7
"2016-05-15 01:13:30",1634478,5.444,33.59,9.02,1.333,10.74,102.0892,4.631,5.79,78.55,0,110,13.25,5.40,355.6
"2016-05-15 01:14:00",1634479,4.454,31.86,6.946,1.392,9.79,102.0841,4.618,5.833,78.44,0,110,13.25,5.39,353.9
"2016-05-15 01:14:30",1634480,4.606,39.1,8.33,1.35,10.93,102.0805,4.609,5.817,78.22,0,110,13.26,5.38,1.1
"2016-05-15 01:15:00",1634481,4.539,33.94,7.204,1.415,10.09,102.0833,4.616,5.725,77.88,0,110,13.26,5.38,355.9
"2016-05-15 01:15:30",1634482,3.995,25.21,3.015,0.327,7.915,102.0813,4.611,5.714,77.69,0,110,13.3,5.38,347.2
"2016-05-15 01:16:00",1634483,5.767,33.18,7.403,1.312,10.76,102.0794,4.606,5.776,77.72,0,110,13.26,5.37,355.2
"2016-05-15 01:16:30",1634484,5.233,31.85,8.08,1.439,10.53,102.0748,4.594,5.755,77.68,0,110,13.26,5.36,353.9
"2016-05-15 01:17:00",1634485,5.683,31.89,7.472,1.407,10.81,102.0723,4.588,5.803,77.76,0,110,13.26,5.36,353.9
"2016-05-15 01:17:30",1634486,5.293,31.36,7.135,1.41,10.5,102.07,4.582,5.735,77.69,0,110,13.26,5.35,353.4
"2016-05-15 01:18:00",1634487,4.51,29.9,5.361,1.257,9.16,102.0703,4.583,5.701,77.63,0,110,13.26,5.35,351.9
"2016-05-15 01:18:30",1634488,4.657,29.94,6.851,1.148,8.97,102.0695,4.581,5.698,77.62,0,110,13.26,5.35,351.9
"2016-05-15 01:19:00",1634489,5.304,33.15,7.977,1.382,9.85,102.0689,4.579,5.765,77.67,0,110,13.26,5.35,355.1
"2016-05-15 01:19:30",1634490,5.26,34.98,7.579,1.351,10.59,102.0692,4.58,5.791,77.64,0,110,13.26,5.35,357.0
"2016-05-15 01:20:00",1634491,5.86,37.19,7.506,1.306,10.76,102.0692,4.58,5.764,77.61,0,110,13.26,5.35,359.2
"2016-05-15 01:20:30",1634492,5.147,34.22,6.183,1.182,9.64,102.0692,4.58,5.714,77.59,0,110,13.26,5.35,356.2
"2016-05-15 01:21:00",1634493,5.163,36.31,6.528,1.481,9.16,102.0683,4.578,5.613,77.43,0,110,13.26,5.35,358.3
"2016-05-15 01:21:30",1634494,5.745,36.19,7.723,1.194,9.81,102.0644,4.568,5.661,77.43,0,110,13.26,5.34,358.2
"2016-05-15 01:22:00",1634495,5.608,32.27,7.33,1.422,10.41,102.0616,4.56,5.809,77.56,0,110,13.26,5.33,354.3
"2016-05-15 01:22:30",1634496,5.262,34.69,8.2,1.229,10.26,102.059,4.554,5.713,77.5,0,110,13.26,5.32,356.7
"2016-05-15 01:23:00",1634497,5.674,34.45,7.704,1.348,11.07,102.0545,4.542,5.768,77.6,0,110,13.26,5.31,356.5
"2016-05-15 01:23:30",1634498,5.198,30.55,6.611,1.404,9.29,102.0536,4.54,5.684,77.52,0,110,13.26,5.31,352.5
"2016-05-15 01:24:00",1634499,4.66,25.85,4.827,1.127,8.29,102.0511,4.534,5.556,77.48,0,110,13.26,5.30,347.9
"2016-05-15 01:24:30",1634500,5.682,28.22,7.993,1.491,9.67,102.0508,4.533,5.702,77.71,0,109.9,13.26,5.30,350.2
"2016-05-15 01:25:00",1634501,6.04,31.3,7.39,1.378,10.36,102.0483,4.526,5.731,77.83,0,110,13.26,5.29,353.3
"2016-05-15 01:25:30",1634502,6.717,32.5,7.338,1.381,11.17,102.0438,4.515,5.799,78.02,0,110,13.26,5.28,354.5
"2016-05-15 01:26:00",1634503,6.064,30.28,7.104,1.386,10.44,102.0406,4.507,5.722,77.98,0,110,13.26,5.27,352.3
"2016-05-15 01:26:30",1634504,5.539,28.04,5.833,1.272,9.02,102.0378,4.5,5.659,77.97,0,110,13.26,5.27,350.0
"2016-05-15 01:27:00",1634505,5.785,29.2,6.805,1.241,9.09,102.0358,4.495,5.644,77.98,0,110,13.26,5.26,351.2
"2016-05-15 01:27:30",1634506,6.922,32.23,7.409,1.37,11.04,102.0353,4.493,5.793,78.02,0,110,13.26,5.26,354.2
"2016-05-15 01:28:00",1634507,6.7,32.65,7.647,1.345,10.78,102.0353,4.493,5.722,77.9,0,110,13.26,5.26,354.6
"2016-05-15 01:28:30",1634508,7.076,35.55,6.869,1.288,11.25,102.0353,4.493,5.772,77.89,0,110,13.26,5.26,357.5
"2016-05-15 01:29:00",1634509,6.137,31.03,6.648,1.265,9.6,102.0353,4.493,5.648,77.75,0,110,13.26,5.26,353.0
"2016-05-15 01:29:30",1634510,6.156,31.56,7.001,1.466,9.97,102.0344,4.491,5.674,77.75,0,110,13.26,5.26,353.6
"2016-05-15 01:30:00",1634511,5.854,33.18,7.406,1.333,9.72,102.0271,4.472,5.603,77.66,0,110,13.26,5.24,355.2
"2016-05-15 01:30:30",1634512,5.782,35.1,7.823,1.293,10.34,102.0203,4.455,5.645,77.69,0,110,13.26,5.22,357.1
"2016-05-15 01:31:00",1634513,6.796,34.03,7.232,1.453,11.09,102.0183,4.45,5.654,77.65,0,109.9,13.26,5.22,356.0
"2016-05-15 01:31:30",1634514,6.922,34.62,7.608,1.442,11.19,102.0183,4.45,5.672,77.76,0,110,13.26,5.22,356.6
"2016-05-15 01:32:00",1634515,6.181,29.7,6.864,1.371,9.37,102.0149,4.441,5.632,77.84,0,110,13.27,5.21,351.7
"2016-05-15 01:32:30",1634516,6.486,30.24,6.904,1.368,9.4,102.0093,4.427,5.559,77.99,0,110,13.27,5.19,352.2
"2016-05-15 01:33:00",1634517,6.893,33.96,7.34,1.37,10.97,102.0019,4.408,5.706,78.29,0,110,13.27,5.18,356.0
"2016-05-15 01:33:30",1634518,5.977,29.68,7.079,1.369,9.84,102.0014,4.407,5.548,78.19,0,110,13.27,5.17,351.7
"2016-05-15 01:34:00",1634519,6.819,35.64,7.607,1.402,11.47,102.0014,4.407,5.696,78.46,0,110,13.27,5.17,357.6
"2016-05-15 01:34:30",1634520,5.965,30.67,7.909,1.577,9.88,102.0014,4.407,5.645,78.56,0,110,13.27,5.17,352.7
"2016-05-15 01:35:00",1634521,6.039,34.02,6.474,1.568,10.25,102.0011,4.406,5.56,78.57,0,110,13.27,5.17,356.0
"2016-05-15 01:35:30",1634522,5.563,37,7.189,1.262,9.92,101.9912,4.381,5.56,78.61,0,110,13.27,5.15,359.0
"2016-05-15 01:36:00",1634523,5.942,37.02,7.132,1.451,10.64,101.985,4.365,5.611,78.55,0,110,13.27,5.13,359.0
"2016-05-15 01:36:30",1634524,5.955,37.63,7.475,1.457,10.49,101.9838,4.362,5.58,78.42,0,110,13.27,5.13,359.6
"2016-05-15 01:37:00",1634525,5.525,35.77,7.206,1.411,10.21,101.9759,4.342,5.581,78.35,0,109.9,13.27,5.11,357.8
"2016-05-15 01:37:30",1634526,5.73,33.33,7.289,1.325,9.68,101.9674,4.32,5.48,78.09,0,110,13.27,5.09,355.3
"2016-05-15 01:38:00",1634527,5.505,34.59,6.08,1.276,9.49,101.9674,4.32,5.551,78.11,0,110,13.27,5.09,356.6
"2016-05-15 01:38:30",1634528,6.454,35.88,7.692,1.347,10.48,101.9674,4.32,5.529,78.09,0,110,13.27,5.09,357.9
"2016-05-15 01:39:00",1634529,5.915,34.28,7.893,1.49,10.01,101.9674,4.32,5.459,78.12,0,109.9,13.27,5.09,356.3
"2016-05-15 01:39:30",1634530,6.466,35.28,7.724,1.536,10.88,101.9674,4.32,5.53,78.3,0,109.9,13.27,5.09,357.3
"2016-05-15 01:40:00",1634531,5.964,36.82,6.921,1.329,9.92,101.9672,4.319,5.533,78.42,0,110,13.27,5.09,358.8
"2016-05-15 01:40:30",1634532,6.149,39.74,7.072,1.472,10.89,101.9612,4.304,5.479,78.38,0,110,13.27,5.07,1.7
"2016-05-15 01:41:00",1634533,5.195,35.06,6.626,1.25,9.31,101.9575,4.295,5.5,78.43,0,110,13.27,5.06,357.1
"2016-05-15 01:41:30",1634534,6.023,38.6,6.9,1.414,10.17,101.953,4.283,5.522,78.44,0,109.9,13.27,5.05,0.6
"2016-05-15 01:42:00",1634535,6.267,40.06,6.712,1.587,10.71,101.9505,4.277,5.485,78.43,0,109.9,13.27,5.04,2.1
"2016-05-15 01:42:30",1634536,6.047,39.96,7.458,1.359,10.38,101.9493,4.274,5.489,78.41,0,109.9,13.26,5.04,2.0
"2016-05-15 01:43:00",1634537,5.587,38.65,7.585,1.467,10.04,101.9474,4.269,5.516,78.49,0,110,13.26,5.04,0.7
"2016-05-15 01:43:30",1634538,5.792,34.84,7.562,1.509,9.78,101.9446,4.262,5.406,78.47,0,109.9,13.26,5.03,356.8
"2016-05-15 01:44:00",1634539,6.341,34.79,7.807,1.42,10.45,101.9409,4.252,5.489,78.69,0,109.9,13.26,5.02,356.8
"2016-05-15 01:44:30",1634540,6.25,32.51,8.73,1.366,9.66,101.942,4.255,5.467,78.87,0,110,13.26,5.02,354.5
"2016-05-15 01:45:00",1634541,6.287,36.89,6.824,1.667,10.93,101.9423,4.256,5.525,79.06,0,109.9,13.26,5.02,358.9
"2016-05-15 01:45:30",1634542,5.556,35.41,7.3,1.432,9.86,101.9375,4.244,5.5,79.12,0,109.9,13.26,5.01,357.4
"2016-05-15 01:46:00",1634543,6.053,38.4,7.377,1.538,10.55,101.9372,4.243,5.433,79.08,0,109.9,13.26,5.01,0.4
"2016-05-15 01:46:30",1634544,5.125,36.53,6.682,1.331,9.06,101.9364,4.241,5.431,79.04,0,109.9,13.26,5.01,358.5
"2016-05-15 01:47:00",1634545,5.816,38.74,6.697,1.374,10.13,101.9361,4.24,5.431,78.94,0,109.9,13.26,5.01,0.7
"2016-05-15 01:47:30",1634546,6.388,37.42,7.722,1.433,10.66,101.9384,4.246,5.429,78.92,0,109.9,13.27,5.01,359.4
"2016-05-15 01:48:00",1634547,5.96,36.95,7.399,1.371,10.2,101.937,4.242,5.41,78.89,0,109.9,13.27,5.01,359.0
"2016-05-15 01:48:30",1634548,5.851,36.03,6.849,1.482,9.79,101.9308,4.226,5.399,78.85,0,109.9,13.27,4.99,358.0
"2016-05-15 01:49:00",1634549,6.271,32.42,6.534,1.681,9.2,101.9271,4.217,5.325,78.78,0,109.9,13.27,4.98,354.4
"2016-05-15 01:49:30",1634550,6.668,34.33,7.14,1.401,10.56,101.9243,4.21,5.448,78.95,0,109.9,13.27,4.98,356.3
"2016-05-15 01:50:00",1634551,6.332,29.57,6.852,1.407,9.75,101.922,4.204,5.404,79.03,0,109.9,13.27,4.97,351.6